Regional Weather Roundup
Issued by NWS Midland/Odessa, TX

Skip options and go directly to product.
Home | Oldest Version | Next Version | Current Version | All | Text Only | Save Text | Print | Product List | Glossary On

Skip product version selection by date and time.   
301
ASUS44 KMAF 300810
RWRMAF
MIDLAND AREA WEATHER ROUNDUP
NATIONAL WEATHER SERVICE MIDLAND TX
300 AM CDT TUE SEP 30 2014

...IN SOUTHWEST TEXAS AND SOUTHEAST NEW MEXICO...

CITY           SKY/WX    TMP DP  RH WIND       PRES   REMARKS
ALPINE         CLEAR     63  55  75 W3        30.07R
ANDREWS        FAIR      65  58  77 S7        29.94S
ARTESIA        NOT AVBL
BIG SPRING     PTCLDY    69  57  66 SE9       29.96R
CARLSBAD       PTCLDY    65  59  81 SE10      29.89F
DRYDEN           N/A     68  63  84 N6        29.91S
FORT STOCKTON  CLEAR     67  60  78 S14       29.92F
GUAD PASS      PTCLDY    64  56  75 SW9       30.05S
HOBBS          CLEAR     63  59  88 S6        29.96S
MARFA          PTCLDY    55  54  94 NW5       30.06R
MIDLAND AIRPK  PTCLDY    69  59  71 S8        29.94S
MIDLAND INTL   PTCLDY    68  59  73 S9        29.93S
ODESSA         PTCLDY    68  58  70 S9        29.94S
PECOS          PTCLDY    65  58  79 CALM      29.88R
PRESIDIO       FAIR      73  60  63 N9        29.92R
SEMINOLE       CLEAR     63  58  84 SE6       29.95S
SNYDER         PTCLDY    66  58  75 SE8       29.95R
WINK           CLEAR     68  59  73 SE10      29.90R
$$
...OTHER STATIONS IN TEXAS...

CITY           SKY/WX    TMP DP  RH WIND       PRES   REMARKS
ABILENE        PTCLDY    68  55  63 S8        29.93S
AMARILLO       MOCLDY    63  57  81 S16       29.93F
AUSTIN         PTCLDY    64  61  90 CALM      29.90R
BROWNSVILLE    CLEAR     75  75 100 CALM      29.84S
CORPUS CHRISTI PTCLDY    74  73  97 CALM      29.85S
DALLAS FTW     MOCLDY    73  64  73 SE3       29.90S
DEL RIO        CLEAR     73  66  78 SE6       29.88S
EL PASO        PTCLDY    76  55  48 W12       29.93S
HOUSTON INT    PTCLDY    73  71  93 CALM      29.87R
LUBBOCK        PTCLDY    64  57  78 S10       29.95R
SAN ANGELO     CLEAR     68  59  73 S7        29.93S
SAN ANTONIO    CLEAR     69  63  81 NW3       29.91R
WACO           CLEAR     66  61  84 CALM      29.90S
WICHITA FALLS  NOT AVBL
$$
...OTHER LOCATIONS IN NEW MEXICO...

CITY           SKY/WX    TMP DP  RH WIND       PRES   REMARKS
ALAMAGORDO     PTCLDY    63  55  77 S8        29.95S
ALBUQUERQUE    CLEAR     56  35  45 W7        30.05S
CANNON AFB     NOT AVBL
CLOVIS           N/A     59  54  82 S7        29.98S
HOLLOMAN AFB   CLEAR     66  57  72 SE6       29.92F
ROSWELL        PTCLDY    63  58  83 S7        29.91S
RUIDOSO        CLEAR     59  45  58 N3        30.10S
SANTA FE       CLEAR     48  34  58 N10       30.07S
TRUTH OR CONSE CLEAR     64  44  48 NW9       29.98S
TUCUMCARI      MOCLDY    63  57  81 S7        29.93R
$$

USA.gov is the U.S. government's official web portal to all federal, state and local government web resources and services.